Belen, NM

6:58 PM MDT on July 24, 2017 (GMT -0600)
Belen

Weather History for KE80 - January, 2014

Change the Weather History Date:

Monday, January 6, 2014

  Actual Average (KABQ) Record (KABQ)
Temperature  
Mean Temperature 28 °F -  
Max Temperature 41 °F 44 °F 72 °F (1909)
Min Temperature 14 °F 22 °F -12 °F (1971)
Degree Days  
Heating Degree Days 38    
Moisture  
Dew Point 1 °F    
Average Humidity 35    
Maximum Humidity 54    
Minimum Humidity 18    
Precipitation  
Precipitation 0.00 in - - ()
Sea Level Pressure  
Sea Level Pressure 30.34 in    
Wind  
Wind Speed 7 mph (NNE)    
Max Wind Speed 10 mph    
Max Gust Speed -    
Visibility 10 miles    
Events      
Averages and records for this station are not official NWS values.
T = Trace of Precipitation, MM = Missing Value Source: NWS Daily Summary

Daily Weather History Graph

Daily Weather History Graph

Search for Another Location

Airport or City:

Trip Planner

Search our weather history database for the weather conditions in past years. The results will help you decide how hot, cold, wet, or windy it might be!

Date:

Astronomy

Jan. 06, 2014 Rise Set
Actual Time 7:15 AM MST 5:11 PM MST
Civil Twilight 6:47 AM MST 5:39 PM MST
Nautical Twilight 6:15 AM MST 6:10 PM MST
Astronomical Twilight 5:45 AM MST 6:41 PM MST
Moon 10:47 AM MST (1/6) 11:30 PM MST (1/6)
Length of Visible Light 10h 52m
Length of Day
9h 56m
Waxing Crescent, 35% of the Moon is Illuminated
Jan 6
Waxing Crescent
Jan 7
First Quarter
Jan 15
Full
Jan 23
Last Quarter
Jan 30
New

Hourly Weather History & Observations

Time (MST) Temp. Windchill Dew Point Humidity Pressure Visibility Wind Dir Wind Speed Gust Speed Precip Events Conditions
12:15 AM 19.8 °F 9.9 °F -1.1 °F 40% 30.31 in - North 8.1 mph - N/A   Unknown
12:35 AM 16.9 °F 6.4 °F -0.6 °F 46% 30.32 in 10.0 mi North 8.1 mph - N/A   Unknown
12:55 AM 15.1 °F 4.2 °F -0.4 °F 50% 30.32 in - NNE 8.1 mph - N/A   Unknown
1:15 AM 16.7 °F 6.2 °F 0.5 °F 49% 30.32 in 10.0 mi North 8.1 mph - N/A   Clear
1:35 AM 15.3 °F 6.6 °F 0.3 °F 52% 30.33 in 10.0 mi North 5.8 mph - N/A   Unknown
1:55 AM 17.6 °F - 0.1 °F 46% - - North - - N/A   Unknown
2:15 AM 14.9 °F 6.1 °F 0.5 °F 53% 30.33 in - NNE 5.8 mph - N/A   Unknown
2:55 AM 16.5 °F - 0.7 °F 50% 30.33 in - Calm Calm - N/A   Unknown
3:15 AM 18.1 °F 12.9 °F 1.4 °F 48% 30.33 in 10.0 mi NNE 3.5 mph - N/A   Unknown
3:55 AM 17.1 °F 5.8 °F 2.3 °F 52% 30.33 in 10.0 mi NNE 9.2 mph - N/A   Unknown
4:15 AM 16.3 °F 5.7 °F 2.1 °F 54% 30.34 in 10.0 mi NNE 8.1 mph - N/A   Unknown
4:55 AM 17.6 °F 6.4 °F 2.3 °F 51% 30.34 in - NNE 9.2 mph - N/A   Unknown
5:15 AM 18.7 °F - 2.3 °F 49% 30.34 in - North - - N/A   Unknown
5:35 AM - - - N/A% - - North - - N/A   Unknown
5:55 AM 17.8 °F 7.5 °F 1.9 °F 50% 30.35 in 10.0 mi NNE 8.1 mph - N/A   Clear
6:15 AM 18.7 °F 7.8 °F 2.1 °F 49% 30.36 in 10.0 mi NNE 9.2 mph - N/A   Unknown
6:35 AM 18.5 °F 7.5 °F 2.3 °F 49% 30.37 in 10.0 mi NNE 9.2 mph - N/A   Unknown
6:55 AM 18.1 °F 7.1 °F 2.1 °F 50% 30.38 in 10.0 mi NNE 9.2 mph - N/A   Unknown
7:15 AM 18.3 °F 6.6 °F 2.3 °F 50% 30.39 in 10.0 mi NNE 10.4 mph - N/A   Clear
7:35 AM 19.0 °F 9.0 °F 2.5 °F 49% 30.40 in - NNE 8.1 mph - N/A   Unknown
7:55 AM - - - N/A% - - North - - N/A   Unknown
9:55 AM 29.5 °F 20.4 °F 3.7 °F 33% 30.44 in 10.0 mi NE 10.4 mph - N/A   Unknown
10:15 AM 31.1 °F 22.4 °F 4.1 °F 32% 30.44 in 10.0 mi NNE 10.4 mph - N/A   Clear
10:35 AM 32.0 °F 24.8 °F 3.6 °F 30% 30.43 in 10.0 mi NE 8.1 mph - N/A   Clear
10:55 AM 33.1 °F 27.7 °F 2.1 °F 27% 30.41 in 10.0 mi NNE 5.8 mph - N/A   Clear
11:15 AM 34.0 °F 28.8 °F 2.8 °F 27% 30.40 in 10.0 mi North 5.8 mph - N/A   Clear
11:35 AM 35.1 °F 31.0 °F 2.5 °F 25% 30.39 in 10.0 mi NNE 4.6 mph - N/A   Clear
11:55 AM 36.0 °F 32.1 °F 1.9 °F 24% 30.37 in 10.0 mi NNE 4.6 mph - N/A   Clear
12:15 PM 36.9 °F 31.4 °F 1.2 °F 22% 30.36 in 10.0 mi NNE 6.9 mph - N/A   Clear
12:35 PM 37.4 °F 32.1 °F 1.4 °F 22% 30.35 in 10.0 mi NE 6.9 mph - N/A   Clear
12:55 PM 38.7 °F 34.3 °F 0.5 °F 20% 30.33 in 10.0 mi NNE 5.8 mph - N/A   Clear
1:15 PM 38.7 °F 32.9 °F -0.4 °F 19% 30.33 in 10.0 mi NE 8.1 mph - N/A   Clear
1:35 PM 39.0 °F 34.8 °F -0.2 °F 19% 30.33 in 10.0 mi ENE 5.8 mph - N/A   Clear
1:55 PM 39.2 °F 34.2 °F -0.2 °F 19% 30.32 in 10.0 mi NE 6.9 mph - N/A   Clear
2:15 PM 39.7 °F 36.5 °F -0.2 °F 19% 30.32 in 10.0 mi NE 4.6 mph - N/A   Clear
2:35 PM 40.5 °F 36.5 °F 0.1 °F 18% 30.32 in 10.0 mi ENE 5.8 mph - N/A   Clear
2:55 PM 40.5 °F 36.5 °F -0.0 °F 18% 30.31 in 10.0 mi NE 5.8 mph - N/A   Clear
3:15 PM 41.0 °F 37.1 °F 0.1 °F 18% 30.31 in 10.0 mi NNE 5.8 mph - N/A   Clear
3:35 PM 41.0 °F 38.0 °F 0.1 °F 18% 30.31 in 10.0 mi NE 4.6 mph - N/A   Clear
3:55 PM 40.8 °F 36.9 °F -0.2 °F 18% 30.30 in 10.0 mi NE 5.8 mph - N/A   Clear
4:15 PM 40.1 °F 35.3 °F -0.4 °F 18% 30.30 in 10.0 mi NE 6.9 mph - N/A   Clear
4:35 PM 39.0 °F 35.7 °F -0.9 °F 19% 30.29 in 10.0 mi NE 4.6 mph - N/A   Clear
4:55 PM 36.1 °F 30.6 °F -0.4 °F 21% 30.29 in 10.0 mi NNE 6.9 mph - N/A   Clear
5:15 PM 34.3 °F 29.2 °F -0.6 °F 23% 30.29 in 10.0 mi NNE 5.8 mph - N/A   Clear
5:35 PM 33.4 °F 28.1 °F -0.6 °F 24% 30.29 in 10.0 mi North 5.8 mph - N/A   Clear
5:55 PM 29.1 °F 22.1 °F -0.8 °F 28% 30.29 in 10.0 mi North 6.9 mph - N/A   Clear
6:15 PM 27.0 °F 18.7 °F -1.1 °F 30% 30.30 in 10.0 mi North 8.1 mph - N/A   Clear
6:35 PM 26.1 °F 16.8 °F -0.6 °F 32% 30.30 in 10.0 mi North 9.2 mph - N/A   Clear
6:55 PM 24.4 °F 16.5 °F -0.6 °F 34% 30.30 in 10.0 mi NNW 6.9 mph - N/A   Clear
7:15 PM 23.9 °F 15.8 °F -0.6 °F 35% 30.31 in 10.0 mi NW 6.9 mph - N/A   Clear
7:35 PM 25.2 °F 18.3 °F -0.4 °F 33% 30.32 in 10.0 mi NW 5.8 mph - N/A   Clear
7:55 PM 25.3 °F 17.6 °F -0.4 °F 33% 30.32 in 10.0 mi NW 6.9 mph - N/A   Clear
8:15 PM 24.8 °F 17.9 °F -0.4 °F 34% 30.33 in 10.0 mi NW 5.8 mph - N/A   Clear
8:35 PM 23.7 °F - -0.4 °F 35% 30.33 in 10.0 mi Calm Calm - N/A   Unknown
8:55 PM 25.0 °F 20.7 °F -0.4 °F 33% 30.33 in 10.0 mi NW 3.5 mph - N/A   Clear
9:15 PM 21.9 °F 15.7 °F -0.4 °F 38% 30.33 in 10.0 mi NW 4.6 mph - N/A   Clear
9:35 PM 18.5 °F - 0.3 °F 45% 30.34 in - Calm Calm - N/A   Unknown
9:55 PM 21.7 °F 15.5 °F -0.4 °F 38% 30.34 in - WSW 4.6 mph - N/A   Unknown
10:15 PM 22.5 °F - 0.1 °F 38% 30.34 in 10.0 mi Calm Calm - N/A   Unknown
10:35 PM 23.2 °F 16.0 °F -0.4 °F 36% 30.33 in 10.0 mi NW 5.8 mph - N/A   Clear
10:55 PM 23.7 °F 19.3 °F -0.4 °F 35% 30.33 in 10.0 mi North 3.5 mph - N/A   Clear
11:35 PM 19.9 °F 14.9 °F 0.5 °F 43% 30.33 in - North 3.5 mph - N/A   Unknown
11:55 PM 20.3 °F 13.8 °F 0.5 °F 42% 30.32 in 10.0 mi North 4.6 mph - N/A   Clear